Wind_Speed
27 26 25 25 25 26 25 25 29 23 22 23 23 16 17 17 18 21 19 18 16 16 16 17 18 20 18 16 17 18 17 16 17 17 14 10 16 16 12 11 12 14 11
28 30 28 25 24 23 23 23 23 25 24 26 24 22 21 19 20 20 18 17 18 18 18 20 20 18 22 21 17 20 19 19 18 18 19 17 14 17 15 16 14 12 15
27 29 27 25 24 24 23 23 24 23 23 20 21 24 24 22 23 23 24 22 21 21 22 23 24 23 23 21 22 21 22 23 22 21 20 18 17 19 21 20 16 18 20
28 28 29 27 26 24 24 24 23 24 23 22 22 21 20 20 21 22 22 25 25 22 24 25 26 27 27 27 27 26 27 24 20 21 22 19 20 21 22 21 22 22 21
32 28 32 30 28 26 25 26 24 23 23 22 21 21 21 21 20 24 25 25 24 25 23 24 25 28 29 28 29 27 27 27 25 26 28 25 23 24 22 20 20 21 20
34 32 30 32 30 30 29 28 26 22 21 20 20 21 22 24 27 25 24 24 21 21 25 25 25 26 28 31 33 36 36 32 34 31 28 28 27 21 19 22 23 25 22
34 33 29 30 28 27 26 27 26 23 20 21 20 20 21 20 20 22 22 27 31 30 30 30 28 26 28 29 31 33 33 35 39 39 38 36 28 22 24 24 27 28 27
30 27 26 25 25 24 23 22 21 21 20 19 22 21 21 25 25 25 25 28 31 34 35 35 36 36 35 35 32 30 30 33 32 36 46 45 43 38 30 28 31 29 21
23 24 23 24 23 23 22 20 16 22 22 22 22 22 23 21 25 26 27 30 32 34 34 35 35 35 35 36 34 35 40 39 32 31 34 32 37 42 33 29 27 24 27
19 20 20 22 23 23 28 28 27 22 18 14 16 17 19 19 25 28 30 31 33 32 33 33 31 33 36 35 34 40 44 40 40 37 36 34 34 29 29 28 28 26 30
26 27 28 27 30 30 28 25 22 16 12 12 11 13 15 19 23 29 33 32 31 32 31 30 28 26 32 36 37 38 38 39 34 32 35 31 27 26 26 26 21 19 24
23 24 25 28 28 28 24 19 16 13 11 8 8 9 9 17 20 25 30 31 29 32 31 28 27 27 29 28 29 36 38 35 37 32 26 29 31 29 27 28 29 26 27
19 20 23 27 23 20 15 15 13 10 4 4 2 4 7 9 12 24 27 22 18 21 24 24 24 27 24 24 24 24 25 34 25 35 27 25 25 28 26 20 18 18 19
14 15 18 18 18 19 16 12 9 7 2 4 1 2 5 9 14 20 18 17 15 13 14 16 18 18 18 20 19 17 19 19 27 22 24 24 24 24 17 18 17 15 13
22 21 20 16 13 13 12 15 7 7 12 11 6 1 3 8 14 16 15 15 12 9 7 8 8 9 12 12 11 10 8 12 19 20 26 20 20 19 17 16 13 11 11
23 23 20 19 19 15 13 10 8 14 14 8 6 5 5 11 18 23 13 12 10 6 5 6 7 9 10 10 6 1 7 10 17 18 21 22 19 16 16 13 10 8 7
20 21 21 17 16 19 21 21 21 16 11 10 10 12 10 10 13 23 27 21 15 8 8 10 10 9 8 7 3 2 6 9 9 10 14 18 18 16 13 11 11 12 15
19 22 19 19 18 19 17 16 14 15 10 8 9 12 13 17 21 20 18 18 18 19 15 14 12 10 7 6 5 5 6 11 12 13 15 15 15 14 14 14 15 20 27
19 18 18 18 18 18 17 17 14 12 10 9 6 1 5 10 13 16 15 14 16 18 20 19 15 13 13 9 8 8 8 10 12 15 17 17 17 17 19 21 23 26 30
17 19 20 19 18 18 16 15 14 13 12 10 8 7 4 4 4 5 8 10 12 14 14 17 24 21 16 14 14 16 17 19 20 21 23 21 21 21 26 29 27 26 24
17 20 21 19 18 16 15 14 13 12 11 11 10 12 6 4 2 3 3 5 7 9 11 13 18 17 15 17 19 20 20 21 24 22 21 20 22 23 21 18 16 14 13
18 19 21 19 17 16 14 13 12 12 11 11 10 12 11 7 4 2 1 1 2 5 6 8 9 10 11 14 16 14 16 17 18 18 18 16 14 12 11 10 9 10 11
18 18 22 20 18 17 16 14 13 12 11 12 11 11 7 7 7 5 4 3 2 2 3 4 4 6 9 10 10 10 12 13 13 13 12 11 10 9 9 9 8 8 9
19 20 22 21 19 17 16 15 14 14 12 12 12 12 11 9 8 8 8 6 5 4 3 4 5 6 7 6 7 7 9 10 9 10 9 7 7 9 9 9 8 8 9
21 21 22 22 20 19 17 16 15 14 13 13 12 12 11 11 10 10 9 9 8 7 7 6 5 7 7 9 7 11 15 15 13 12 8 7 7 9 9 9 10 10 10
22 24 24 22 21 20 19 18 16 15 14 13 12 12 12 12 11 11 11 11 10 9 9 9 9 10 9 8 10 15 12 15 16 18 13 8 9 9 10 10 10 10 11
Wind_Direction
201 207 207 211 215 219 217 224 228 226 224 234 222 224 231 236 242 249 248 239 249 260 257 254 259 256 255 259 268 264 258 259 261 270 262 284 264 259 250 251 255 259 253
204 205 213 214 213 219 220 222 226 226 226 228 237 233 234 230 241 249 252 248 257 261 262 266 258 259 263 260 256 257 258 256 259 263 264 260 266 269 262 249 251 228 264
204 209 207 210 214 214 223 221 226 229 229 228 237 238 239 240 245 247 249 252 255 259 259 258 262 265 263 254 253 250 254 254 250 253 254 259 256 245 264 260 243 229 244
203 206 208 210 213 216 216 226 220 230 231 232 231 239 244 243 244 250 254 259 250 252 257 261 260 257 258 262 260 253 245 247 252 254 258 261 255 253 249 261 259 253 251
206 208 213 215 213 214 219 221 228 224 230 231 234 235 240 244 249 252 250 256 262 262 260 269 272 272 263 260 263 259 250 249 247 250 253 251 248 240 234 244 257 255 251
208 215 214 219 218 216 216 221 225 224 225 229 234 239 241 240 245 249 251 251 261 257 261 266 269 268 264 265 265 260 254 252 248 239 249 251 248 251 237 242 246 244 240
211 213 210 219 219 217 217 220 224 225 227 235 236 241 249 248 259 256 260 257 261 266 267 267 264 266 265 267 269 270 263 256 253 251 247 244 244 245 244 250 247 253 256
207 209 210 210 212 211 213 214 221 225 232 232 236 243 248 257 264 267 267 269 272 276 278 278 276 275 271 263 254 256 258 264 264 255 248 252 252 250 245 250 255 259 253
205 206 209 202 208 206 209 211 214 223 222 229 237 242 250 255 267 273 278 281 281 279 279 279 277 274 272 268 263 264 254 252 251 256 260 256 255 251 249 247 248 240 229
199 203 201 202 204 195 202 207 215 217 219 229 238 246 257 270 279 281 282 280 279 278 276 277 278 280 281 276 269 260 258 250 249 252 253 254 254 256 249 242 248 254 248
195 194 194 195 198 197 204 217 221 201 216 215 245 265 278 281 280 283 281 283 285 282 278 279 278 269 264 267 270 267 261 256 240 246 250 253 253 244 247 239 242 259 262
204 200 199 199 206 209 218 214 198 197 214 229 260 283 281 291 300 296 296 296 291 287 289 287 284 285 287 280 273 263 257 255 242 235 239 246 245 243 246 240 246 250 242
209 206 210 216 221 221 204 207 191 178 148 219 247 285 290 299 296 294 303 301 294 285 288 292 295 295 289 283 282 276 265 250 245 228 230 246 241 241 245 251 230 219 218
181 187 197 195 184 175 174 161 157 118 173 246 202 276 310 322 320 309 318 320 317 309 298 299 292 289 289 291 287 276 265 247 230 223 222 228 227 242 244 219 218 231 233
154 151 148 147 155 152 143 145 161 181 200 201 194 93 16 1 342 342 334 336 334 336 327 332 343 326 323 320 307 277 239 213 216 208 215 226 237 243 219 217 220 230 243
162 165 164 162 159 161 163 203 196 191 189 180 152 112 58 38 31 26 360 358 350 347 4 14 10 3 354 336 332 310 190 202 194 200 210 223 222 216 211 212 211 188 174
164 166 165 166 168 172 175 175 166 160 150 131 114 94 76 54 38 35 25 25 29 24 53 55 49 41 23 17 44 111 159 167 172 197 207 203 194 188 183 164 153 152 154
175 181 171 168 167 166 164 162 166 164 155 136 120 102 72 50 43 41 30 20 25 36 44 49 48 50 56 47 53 79 127 156 173 181 177 170 160 150 142 137 141 141 137
176 171 169 172 175 175 176 177 185 190 192 192 188 19 27 29 28 31 35 25 28 38 43 55 54 55 62 78 79 87 97 124 128 127 127 127 130 134 127 126 130 129 125
178 178 173 176 180 178 182 184 187 190 197 204 209 214 237 344 6 11 24 37 35 37 50 50 56 62 70 78 90 101 109 116 119 124 124 120 121 122 126 125 124 125 126
184 182 174 180 185 182 187 190 195 197 202 210 213 223 232 174 312 351 12 31 49 52 52 52 66 73 64 79 91 99 107 115 119 116 119 121 124 125 129 132 138 150 157
189 187 183 186 189 187 193 196 206 211 214 219 218 247 256 244 246 276 296 47 50 76 78 82 76 74 72 73 86 96 109 114 115 118 122 126 130 133 139 144 150 161 163
198 196 192 192 194 195 199 201 210 216 220 223 221 226 256 227 233 228 226 217 169 124 114 117 121 114 112 112 113 120 125 127 129 133 139 145 156 160 163 164 166 172 177
204 203 199 199 200 203 207 211 216 220 222 228 226 224 225 226 228 229 221 226 211 205 179 188 171 190 166 146 152 159 157 157 164 166 164 166 168 174 169 171 172 176 181
207 205 203 205 205 205 209 214 220 224 230 227 229 229 230 230 230 232 238 232 230 224 229 212 215 217 191 178 192 203 195 179 177 181 178 185 186 193 187 190 188 190 193
206 206 203 206 208 208 212 218 221 226 231 233 228 230 233 233 236 238 237 236 234 237 227 234 229 217 218 220 215 224 224 215 204 190 178 196 200 202 202 205 205 207 207
Height
1522 1526 1530 1532 1536 1538 1543 1546 1548 1552 1554 1555 1557 1560 1563 1564 1564 1564 1564 1566 1566 1565 1566 1566 1566 1566 1567 1568 1567 1566 1566 1567 1565 1565 1565 1564 1562 1561 1563 1562 1561 1560 1559
1517 1522 1525 1529 1533 1536 1538 1542 1544 1545 1548 1551 1553 1555 1557 1559 1560 1559 1560 1561 1561 1561 1561 1560 1560 1562 1561 1561 1562 1562 1562 1562 1560 1561 1561 1561 1560 1559 1558 1559 1559 1557 1556
1514 1517 1521 1525 1529 1533 1536 1538 1540 1542 1544 1547 1548 1549 1551 1553 1554 1554 1554 1555 1555 1556 1556 1555 1555 1555 1555 1556 1555 1556 1556 1556 1555 1556 1555 1556 1555 1553 1552 1554 1554 1553 1552
1509 1513 1516 1520 1524 1528 1531 1534 1536 1538 1540 1542 1544 1546 1547 1548 1549 1549 1549 1548 1548 1549 1548 1548 1548 1549 1549 1548 1549 1549 1549 1549 1550 1550 1550 1549 1550 1550 1546 1547 1548 1548 1548
1505 1507 1509 1514 1518 1522 1526 1529 1531 1534 1536 1538 1540 1541 1543 1544 1544 1543 1543 1543 1542 1542 1543 1542 1542 1541 1542 1542 1542 1542 1542 1542 1543 1543 1543 1542 1542 1542 1540 1541 1541 1542 1543
1499 1501 1505 1509 1513 1516 1519 1522 1525 1528 1530 1533 1535 1536 1536 1535 1534 1537 1538 1538 1537 1537 1536 1536 1535 1535 1534 1533 1533 1533 1534 1533 1533 1534 1535 1535 1534 1535 1535 1535 1536 1536 1537
1493 1497 1502 1505 1509 1512 1516 1519 1521 1523 1526 1526 1529 1530 1531 1529 1530 1531 1531 1531 1530 1528 1527 1527 1526 1527 1527 1526 1524 1523 1523 1525 1524 1527 1525 1525 1526 1529 1530 1528 1527 1529 1531
1489 1494 1498 1501 1503 1507 1511 1515 1517 1519 1522 1524 1523 1524 1525 1524 1525 1525 1525 1524 1522 1520 1518 1517 1515 1514 1514 1514 1515 1514 1514 1513 1514 1515 1515 1516 1518 1522 1523 1522 1522 1523 1525
1486 1489 1492 1496 1499 1502 1506 1509 1512 1514 1515 1519 1519 1519 1520 1520 1519 1519 1517 1515 1513 1511 1509 1506 1505 1503 1503 1503 1501 1501 1503 1504 1507 1506 1506 1508 1508 1511 1515 1516 1516 1516 1514
1482 1485 1489 1492 1494 1498 1499 1497 1501 1508 1512 1513 1514 1515 1515 1515 1513 1512 1511 1509 1505 1501 1499 1496 1495 1494 1492 1492 1490 1490 1487 1490 1496 1499 1500 1499 1501 1503 1504 1507 1509 1509 1507
1475 1477 1481 1486 1487 1489 1492 1494 1496 1501 1507 1510 1511 1511 1511 1511 1509 1506 1502 1499 1495 1490 1487 1486 1485 1485 1482 1480 1478 1477 1477 1480 1483 1486 1489 1492 1495 1496 1498 1500 1500 1501 1499
1474 1477 1480 1482 1483 1486 1488 1493 1498 1500 1502 1506 1508 1510 1510 1507 1504 1499 1493 1490 1486 1480 1478 1475 1473 1472 1470 1469 1466 1465 1466 1467 1471 1477 1481 1484 1487 1490 1491 1492 1494 1496 1498
1472 1475 1478 1480 1482 1485 1490 1492 1495 1496 1502 1507 1504 1509 1509 1506 1503 1495 1487 1482 1479 1474 1471 1468 1466 1464 1462 1460 1458 1457 1456 1458 1463 1469 1474 1478 1482 1483 1485 1486 1489 1492 1495
1470 1472 1475 1478 1480 1484 1488 1490 1493 1494 1503 1507 1504 1507 1506 1503 1498 1491 1483 1478 1474 1470 1467 1464 1461 1459 1457 1454 1451 1450 1450 1451 1456 1463 1471 1472 1476 1478 1481 1483 1487 1490 1492
1471 1473 1476 1479 1483 1485 1487 1488 1489 1493 1503 1506 1504 1504 1502 1500 1496 1487 1480 1475 1471 1467 1464 1461 1458 1456 1453 1450 1448 1445 1446 1449 1453 1458 1465 1469 1474 1476 1479 1481 1484 1486 1488
1470 1473 1476 1478 1478 1485 1485 1489 1492 1500 1502 1502 1502 1500 1500 1499 1493 1486 1480 1475 1470 1465 1463 1459 1457 1455 1453 1451 1448 1446 1446 1448 1453 1458 1463 1467 1470 1473 1477 1480 1482 1484 1485
1470 1473 1475 1479 1481 1483 1487 1491 1495 1499 1500 1502 1500 1498 1501 1498 1493 1487 1482 1477 1472 1467 1463 1459 1456 1455 1456 1454 1452 1450 1450 1451 1454 1459 1462 1466 1469 1473 1476 1478 1481 1483 1485
1469 1471 1475 1479 1483 1485 1489 1492 1495 1498 1500 1501 1500 1500 1499 1496 1493 1491 1488 1484 1477 1469 1464 1460 1461 1458 1457 1458 1456 1453 1453 1455 1457 1460 1463 1467 1471 1475 1477 1479 1483 1486 1488
1468 1471 1476 1480 1484 1487 1490 1492 1495 1497 1499 1501 1500 1499 1498 1498 1495 1493 1491 1488 1481 1476 1470 1466 1466 1463 1462 1462 1460 1458 1459 1459 1462 1465 1468 1471 1474 1477 1480 1483 1487 1491 1493
1468 1471 1475 1479 1482 1486 1489 1492 1494 1496 1498 1499 1500 1500 1500 1498 1497 1496 1493 1490 1487 1482 1478 1475 1471 1469 1468 1467 1465 1464 1464 1466 1467 1470 1473 1477 1480 1484 1487 1490 1493 1496 1499
1466 1468 1472 1476 1480 1483 1486 1489 1492 1493 1495 1496 1497 1496 1496 1496 1496 1495 1493 1491 1490 1487 1484 1481 1479 1478 1479 1475 1474 1473 1474 1473 1474 1478 1481 1484 1487 1490 1493 1496 1498 1499 1503
1465 1466 1470 1474 1477 1480 1483 1486 1489 1491 1492 1493 1493 1491 1492 1493 1494 1492 1493 1491 1490 1488 1488 1487 1487 1487 1485 1482 1482 1482 1484 1484 1484 1486 1489 1491 1494 1495 1498 1500 1501 1503 1506
1463 1464 1467 1471 1474 1476 1480 1482 1485 1486 1488 1489 1489 1489 1489 1490 1491 1491 1492 1492 1490 1489 1489 1489 1491 1490 1490 1490 1489 1489 1488 1489 1489 1490 1491 1493 1495 1497 1498 1500 1501 1503 1506
1459 1461 1464 1468 1470 1473 1476 1479 1481 1482 1484 1485 1486 1487 1487 1488 1489 1490 1491 1490 1489 1489 1488 1491 1490 1491 1490 1490 1491 1493 1491 1491 1492 1493 1494 1495 1496 1496 1498 1499 1501 1503 1505
1454 1457 1460 1464 1467 1469 1472 1475 1477 1479 1481 1482 1483 1484 1485 1485 1486 1488 1487 1488 1488 1488 1489 1489 1489 1489 1488 1489 1492 1490 1488 1489 1490 1492 1493 1494 1496 1496 1497 1498 1499 1500 1503
1450 1453 1456 1460 1463 1465 1468 1471 1473 1475 1477 1478 1479 1480 1482 1483 1483 1484 1485 1486 1486 1487 1487 1488 1488 1487 1487 1487 1488 1486 1485 1486 1487 1489 1491 1493 1494 1494 1496 1497 1498 1499 1501